Location: Seattle
(47.6060°N, 122.3310°W)
Time: 11:54:37
(UTC-07:00)

ISS - Visible Passes

Search period start: 06 July 2020 00:00
Search period end: 16 July 2020 00:00
Orbit: 417 x 421 km, 51.6° (Epoch: 07 July)

Date Brightness Start Highest point End Pass type
(mag) Time Alt. Az. Time Alt. Az. Time Alt. Az.
06 Jul -2.8 02:08:33 34° ESE 02:08:33 34° ESE 02:11:05 10° ENE visible
06 Jul -3.1 03:41:28 11° W 03:44:41 55° NNW 03:48:00 10° ENE visible
07 Jul -1.5 01:22:25 15° E 01:22:25 15° E 01:23:17 10° E visible
07 Jul -3.6 02:55:19 26° W 02:57:02 71° NNW 03:00:23 10° ENE visible
07 Jul -2.4 04:30:56 10° WNW 04:34:08 39° N 04:37:20 10° ENE visible
08 Jul -3.9 02:09:07 73° SW 02:09:23 84° SSE 02:12:46 10° ENE visible
08 Jul -2.5 03:43:12 10° WNW 03:46:25 41° N 03:49:38 10° ENE visible
09 Jul -2.8 01:22:51 37° E 01:22:51 37° E 01:25:07 10° ENE visible
09 Jul -2.7 02:55:46 12° W 02:58:41 46° N 03:01:57 10° ENE visible
09 Jul -2.5 04:32:38 10° WNW 04:35:53 44° N 04:39:08 10° E visible
10 Jul -1.6 00:36:29 17° E 00:36:29 17° E 00:37:24 10° ENE visible
10 Jul -3.1 02:09:23 27° W 02:10:58 55° NNW 02:14:18 10° ENE visible
10 Jul -2.4 03:44:56 10° WNW 03:48:09 40° N 03:51:21 10° ENE visible
11 Jul -3.6 01:22:51 61° WNW 01:23:17 72° NNW 01:26:39 10° ENE visible
11 Jul -2.3 02:57:12 10° WNW 03:00:23 39° N 03:03:35 10° ENE visible
11 Jul -3.3 04:34:10 10° WNW 04:37:31 65° NNE 04:40:52 10° ESE visible
12 Jul -3.6 00:36:04 64° ENE 00:36:04 64° ENE 00:38:59 10° ENE visible
12 Jul -2.5 02:09:25 10° WNW 02:12:37 41° N 02:15:51 10° ENE visible
12 Jul -2.9 03:46:30 10° WNW 03:49:48 52° NNE 03:53:06 10° E visible
12 Jul -3.5 23:48:31 49° ESE 23:48:31 49° ESE 23:51:18 10° ENE visible
13 Jul -2.7 01:21:36 10° W 01:24:52 46° N 01:28:08 10° ENE visible
13 Jul -2.5 02:58:48 10° WNW 03:02:03 44° N 03:05:18 10° E visible
13 Jul -3.8 04:35:38 10° WNW 04:38:59 66° SSW 04:42:18 10° SE visible
13 Jul -3.3 22:57:14 10° SW 23:00:22 38° SE 23:03:31 10° ENE visible
14 Jul -3.1 00:33:48 10° W 00:37:06 55° NNW 00:40:26 10° ENE visible
14 Jul -2.4 02:11:03 10° WNW 02:14:16 40° N 02:17:28 10° ENE visible
14 Jul -3.8 03:47:57 10° WNW 03:51:19 87° NNE 03:54:41 10° ESE visible
14 Jul -2.7 22:10:00 10° SSW 22:12:48 25° SE 22:15:37 10° E visible
14 Jul -3.6 23:46:00 10° WSW 23:49:22 72° NNW 23:52:44 10° ENE visible
15 Jul -2.3 01:23:16 10° WNW 01:26:28 39° N 01:29:41 10° ENE visible
15 Jul -3.4 03:00:15 10° WNW 03:03:36 65° NNE 03:06:57 10° ESE visible
15 Jul -2.9 04:37:16 10° W 04:40:14 29° SW 04:43:11 10° SSE visible
15 Jul -3.9 22:58:17 10° WSW 23:01:39 83° SSE 23:05:02 10° ENE visible
